Flag for Germany Weather past 2 weeks in Itzehoe, Schleswig-Holstein, Germany

Now
68 °F

Mild.


Feels Like: 68 °F
Forecast: 60 / 74 °F
Wind: 9 mph from Northeast

Location: Hohn

Current Time: Aug 30, 2015 at 12:29:59 PM

Latest Report: Aug 30, 2015 at 11:20 AM


Visibility: 3 mi

Pressure: 30.09 "Hg

Humidity: 64%

Dew point: 55 °F

Location of ItzehoeLocation

Historic Weather in Itzehoe — Graph

°F

Itzehoe temperature yesterday

Maximum temperature yesterday: 70 °F (at 4:20 PM)
Minimum temperature yesterday: 52 °F (at 5:20 AM)
Average temperature yesterday: 60 °F

Past Weeks' High & Low Weather Summary

 TemperatureHumidityPressure
High77 °F (Aug 21, 2:20 PM)100% (Aug 15, 9:20 PM)30.30 "Hg (Aug 15, 9:20 PM)
Low52 °F (Aug 21, 1:20 AM)34% (Aug 22, 3:20 PM)29.59 "Hg (Aug 24, 7:20 PM)
Average63 °F82%29.97 "Hg
* Reported Aug 15 10:20 AM — Aug 30 10:20 AM, Itzehoe, Weather by CustomWeather, © 2015

Note: Actual official high and low records may vary slightly from our data, if they occured in-between our weather recording intervals... More about our weather records

Advertising

Itzehoe weather history for previous 24 hours

 ConditionsComfort  
Time TempWeatherWind HumidityBarometerVisibility
10:20 AM
Sun, Aug 30
63 °FMild.7 mph83%30.12 "Hg2 mi
9:20 AM61 °FCool.5 mph88%30.12 "Hg2 mi
8:20 AM57 °FCool.No wind94%30.12 "Hg2 mi
7:20 AM55 °FCool.1 mph94%30.12 "Hg2 mi
6:20 AM52 °FCool.No wind100%30.12 "Hg2 mi
5:20 AM54 °FCool.1 mph94%30.12 "Hg2 mi
4:20 AM52 °FCool.1 mph100%30.12 "Hg2 mi
3:20 AM52 °FCool.1 mph94%30.12 "Hg2 mi
2:20 AM52 °FCool.No wind94%30.12 "Hg2 mi
1:20 AM55 °FCool.3 mph94%30.15 "Hg2 mi
12:20 AM55 °FCool.3 mph88%30.15 "Hg2 mi
11:20 PM
Sat, Aug 29
57 °FCool.2 mph88%30.15 "Hg2 mi
10:20 PM59 °FCool.3 mph82%30.15 "Hg3 mi
9:20 PM59 °FCool.2 mph88%30.15 "Hg2 mi
8:20 PM61 °FCool.2 mph83%30.15 "Hg3 mi
7:20 PM66 °FMild.2 mph73%30.15 "Hg3 mi
6:20 PM70 °FMild.5 mph53%30.15 "Hg4 mi
5:20 PM70 °FMild.5 mph53%30.18 "Hg4 mi
4:20 PM70 °FMild.8 mph50%30.18 "Hg4 mi
3:20 PM68 °FMild.7 mph56%30.18 "Hg4 mi
2:20 PM68 °FMild.7 mph56%30.21 "Hg4 mi
1:20 PM66 °FMild.8 mph60%30.21 "Hg4 mi
Weather by CustomWeather, © 2015

See weather overviewHow to use our weather pages